Location: Cybinka
(52.1954°N, 14.8001°E)
Time: 11:40:23
(UTC+02:00)

ISS - Visible Passes

Search period start: 22 September 2018 00:00
Search period end: 02 October 2018 00:00
Orbit: 403 x 408 km, 51.6° (Epoch: 22 September)

Date Brightness Start Highest point End Pass type
(mag) Time Alt. Az. Time Alt. Az. Time Alt. Az.
22 Sep -1.6 20:28:04 10° S 20:28:51 13° SSE 20:28:51 13° SSE visible
23 Sep -1.7 21:11:10 10° SW 21:12:17 18° SSW 21:12:17 18° SSW visible
24 Sep -2.7 20:19:39 10° SSW 20:22:28 26° SSE 20:22:49 25° SE visible
24 Sep -0.7 21:55:23 10° WSW 21:55:31 11° WSW 21:55:31 11° WSW visible
25 Sep -2.0 19:28:25 10° S 19:30:44 18° SE 19:33:04 10° E visible
25 Sep -2.9 21:03:32 10° WSW 21:05:53 39° SW 21:05:53 39° SW visible
26 Sep -3.3 20:11:46 10° SW 20:14:55 42° SSE 20:16:08 28° ESE visible
26 Sep -1.1 21:47:59 10° W 21:48:49 17° W 21:48:49 17° W visible
27 Sep -2.7 19:20:09 10° SW 19:23:05 30° SSE 19:26:02 10° E visible
27 Sep -3.6 20:56:02 10° WSW 20:58:57 64° SW 20:58:57 64° SW visible
28 Sep -3.7 20:04:08 10° WSW 20:07:24 62° SSE 20:09:02 26° E visible
28 Sep -1.3 21:40:32 10° W 21:41:42 20° W 21:41:42 20° W visible
29 Sep -3.3 19:12:18 10° SW 19:15:29 47° SSE 19:18:41 10° E visible
29 Sep -3.8 20:48:34 10° W 20:51:43 78° SW 20:51:43 78° SW visible
30 Sep -3.9 19:56:36 10° W 19:59:53 79° S 20:01:42 25° E visible
30 Sep -1.4 21:33:03 10° W 21:34:22 22° W 21:34:22 22° W visible
01 Oct -3.9 20:41:04 10° W 20:44:18 77° SSW 20:44:18 77° SSW visible
